RH
69 84 88 80 85 82 88 86 84 79 64 72 75 72 65 56 52 50 52 46 44 40 35 33 32 34 35 33 34 45 55 65 65 74 80 84 73 88 91 92 90 88 91 80
82 89 75 66 70 79 89 96 86 75 64 64 69 69 56 50 49 54 49 47 43 41 38 35 33 35 36 34 36 42 47 56 64 69 77 79 78 80 81 89 91 88 52 35
88 65 61 69 76 84 86 87 69 71 60 63 72 64 45 38 41 48 52 47 42 40 36 36 33 35 37 37 39 41 46 48 51 72 80 84 76 82 79 83 89 53 35 36
86 69 70 72 78 79 88 72 76 80 86 88 70 81 51 46 46 45 46 48 46 43 40 37 34 37 39 44 47 52 54 50 61 85 82 80 76 77 80 83 54 35 37 40
88 94 82 78 72 67 73 61 77 78 85 87 75 95 67 51 48 47 59 49 43 39 40 37 35 38 44 52 56 69 67 69 81 87 85 86 86 87 84 53 35 37 40 43
76 70 73 75 60 62 62 69 74 76 88 97 67 80 56 40 42 55 54 45 44 40 38 39 38 50 54 62 69 82 86 91 92 92 91 90 89 81 56 36 37 41 43 46
98 95 80 69 75 62 68 91 97 97 96 83 56 71 55 41 49 53 51 44 40 39 45 43 45 65 65 66 75 86 88 90 91 90 82 77 67 47 35 36 40 44 47 48
98 99 95 86 71 78 86 87 95 90 92 84 49 71 49 39 32 29 28 35 39 42 49 45 46 61 67 70 79 88 91 89 88 77 62 50 40 36 38 40 44 48 49 49
98 95 84 83 66 73 99 98 72 87 68 89 80 67 56 36 55 56 49 43 40 51 58 54 58 67 74 77 83 88 91 89 78 54 47 42 38 40 41 45 48 50 51 50
80 95 76 79 68 76 83 65 95 98 96 91 60 68 73 52 40 30 42 55 54 62 68 69 69 70 77 81 86 85 83 73 54 54 48 39 40 42 46 49 51 52 53 47
71 87 84 88 92 87 93 96 90 75 84 90 75 48 29 42 37 39 58 61 68 75 76 77 76 72 68 74 76 71 64 59 60 54 43 41 42 47 50 52 54 55 50 40
72 92 97 74 70 59 63 71 77 81 88 76 71 65 45 52 49 49 67 72 80 85 85 77 69 66 66 66 64 62 60 56 52 46 42 43 46 50 52 55 57 53 44 33
80 99 97 95 84 82 100 95 86 71 70 80 83 54 52 40 60 55 73 80 87 88 82 71 64 65 64 63 61 58 54 49 44 42 44 47 50 53 56 58 55 48 38 25
75 100 96 89 84 99 99 94 93 96 95 76 69 51 37 32 49 68 73 84 89 86 76 67 64 63 60 58 54 49 45 43 42 43 46 49 53 56 58 57 52 44 30 19
91 100 99 93 81 80 100 98 91 97 78 86 56 54 45 46 64 65 72 82 86 84 77 69 65 62 59 55 51 47 44 43 43 44 48 52 56 58 58 54 48 37 24 16
94 100 100 96 85 94 96 96 87 80 76 78 76 75 45 61 56 67 72 76 81 84 79 70 66 63 60 56 53 50 47 45 44 46 49 53 58 60 56 52 43 30 17 18
98 100 100 93 96 95 100 94 95 83 73 80 97 78 63 54 54 64 70 69 73 75 70 67 64 63 60 58 56 54 51 48 47 47 50 55 59 58 53 46 36 18 18 34
96 100 100 100 100 98 86 86 82 92 86 84 84 77 70 53 57 60 61 63 66 68 68 67 66 67 64 62 60 58 54 51 50 50 52 57 59 54 50 43 20 17 34 38
78 82 98 100 98 68 48 68 94 97 93 82 87 74 60 62 52 62 58 57 57 57 58 58 60 62 66 65 63 59 55 54 51 52 55 59 56 53 45 21 17 34 39 39
80 81 92 92 100 81 50 44 40 63 65 56 70 63 65 56 49 54 57 56 56 57 57 56 60 64 66 66 64 60 56 53 52 52 58 59 54 46 26 16 34 40 41 41
95 94 95 90 94 83 58 56 42 52 50 54 54 55 60 53 67 64 60 60 58 57 57 60 62 63 66 66 63 59 55 52 53 58 60 53 49 30 16 32 40 42 43 40
88 89 86 93 94 77 55 44 42 47 59 65 67 61 71 73 77 71 65 63 63 60 63 64 63 66 66 64 60 56 54 55 58 60 54 52 29 17 29 38 41 45 43 38
88 77 86 83 79 61 54 54 55 53 58 64 69 69 54 69 71 70 70 68 67 64 65 66 64 66 63 58 56 57 57 60 62 56 53 28 17 27 36 40 45 46 41 29
79 74 82 74 61 62 53 53 52 53 55 63 66 67 59 64 69 69 68 68 67 67 66 65 64 60 56 57 59 61 64 63 58 54 27 17 25 34 38 45 48 44 34 24
80 74 74 74 63 56 53 52 53 55 57 61 70 68 65 63 67 65 66 66 65 64 64 63 63 62 61 60 61 65 67 62 56 28 18 24 30 33 41 48 46 38 26 26
66 73 74 75 55 49 51 52 54 54 60 60 61 70 69 63 66 67 68 67 65 64 64 63 62 63 60 62 69 69 62 53 25 18 23 28 30 39 49 47 40 28 25 22
Wind_Speed
3 3 10 12 8 4 5 4 4 4 6 5 9 15 12 14 20 25 26 33 34 35 31 24 20 23 23 22 22 22 25 31 31 32 31 27 23 22 20 16 13 12 10 7
2 13 8 7 7 10 8 12 16 6 7 6 10 21 17 15 19 22 23 29 35 39 34 25 23 26 23 21 21 24 26 28 31 34 32 27 27 21 18 15 13 10 9 7
12 4 12 6 8 9 11 16 16 16 11 10 11 24 18 14 25 27 30 32 36 37 36 27 28 29 25 23 21 21 25 29 32 34 33 30 25 23 19 16 13 13 10 7
10 13 14 8 11 11 16 8 11 10 5 7 3 9 7 5 15 19 26 31 34 36 33 28 32 31 27 23 19 19 21 22 28 32 31 27 26 24 19 17 17 14 10 6
6 4 10 17 13 10 7 5 8 7 5 6 14 6 6 8 16 15 8 26 34 39 35 30 35 34 28 23 21 20 21 23 27 28 26 25 24 23 21 20 18 14 9 5
9 5 5 8 16 10 2 5 7 3 3 10 9 10 11 10 13 8 9 26 29 34 38 34 37 33 30 25 24 24 25 26 26 24 22 22 23 23 24 21 17 11 7 5
4 12 2 4 8 8 13 6 3 5 6 8 6 10 23 9 6 5 10 21 29 35 36 39 39 36 32 29 29 28 28 28 25 23 21 20 21 21 20 18 13 9 6 5
7 6 16 7 10 7 16 13 4 6 5 4 11 11 13 14 24 36 39 32 25 30 37 41 44 41 36 33 32 33 32 29 26 23 24 23 22 20 18 14 10 7 5 6
4 6 4 8 10 11 6 11 17 5 3 3 5 8 8 13 13 10 15 21 27 30 36 42 47 43 40 36 35 35 33 30 28 27 26 24 21 18 14 12 9 6 6 8
3 4 6 6 13 10 9 6 4 5 5 6 9 8 11 5 17 23 12 13 23 29 35 41 48 46 40 36 35 33 31 30 29 27 24 22 19 16 14 11 7 5 6 8
7 5 2 7 12 14 9 7 5 2 4 4 5 8 9 15 18 17 10 16 28 34 40 43 46 42 38 35 34 33 31 31 29 26 24 21 19 17 13 9 6 5 7 9
12 4 6 17 4 15 16 17 16 7 7 9 8 16 5 8 12 9 8 20 24 27 33 41 44 40 38 35 34 33 31 29 27 25 23 20 18 15 11 7 5 5 7 10
10 4 4 2 7 10 8 10 16 17 7 10 6 13 8 10 11 5 15 21 27 30 35 40 40 39 37 36 35 33 30 28 26 24 21 19 16 12 9 6 5 6 8 10
14 5 8 7 5 3 6 13 18 20 12 14 19 26 22 21 13 5 12 22 28 33 38 40 39 38 37 36 35 32 29 27 25 22 19 16 14 11 8 6 6 7 9 11
8 6 10 17 22 16 8 9 20 20 18 15 13 15 22 17 18 7 11 25 29 32 36 39 39 38 37 36 33 30 28 26 23 20 17 15 12 10 7 6 7 9 11 13
6 4 2 11 18 23 16 15 18 23 21 21 14 18 19 16 14 12 19 25 26 28 34 37 37 38 37 36 33 30 28 24 21 18 16 14 12 10 7 7 8 10 12 13
4 3 3 8 7 8 5 17 16 19 17 13 11 16 15 12 8 14 21 26 31 34 38 38 37 37 36 35 33 30 26 22 19 17 15 13 12 9 7 7 9 11 12 15
5 3 3 5 3 2 4 9 13 17 11 11 14 19 16 14 7 13 17 24 27 32 35 35 35 34 34 32 29 26 23 21 18 16 14 13 11 8 7 9 9 10 14 17
9 2 4 4 3 3 1 6 7 10 12 22 23 18 8 13 7 5 11 18 24 29 30 31 31 30 30 30 28 25 23 20 17 15 14 12 9 8 8 8 9 12 15 18
8 6 3 4 4 3 1 1 2 10 3 8 21 16 8 8 3 3 11 14 18 20 23 26 26 27 27 28 26 25 23 19 16 14 13 10 9 7 7 9 11 14 18 20
3 3 5 3 3 7 4 6 3 4 3 3 6 10 7 4 1 12 15 19 18 19 20 21 24 26 27 26 26 24 20 17 14 13 12 9 7 7 7 9 13 17 19 21
4 4 3 2 2 4 7 7 4 2 4 4 1 7 15 17 18 19 20 23 22 23 23 23 26 26 25 25 24 22 18 15 14 12 10 8 6 6 8 11 15 18 21 24
3 4 3 6 5 3 3 1 3 4 3 4 4 14 24 26 24 24 25 25 25 24 25 24 25 26 25 24 19 17 15 15 13 11 8 6 5 6 10 13 17 20 22 24
3 3 2 2 2 3 2 1 4 3 7 9 15 23 26 31 28 29 28 28 28 26 26 26 27 28 27 20 15 13 16 14 10 7 5 4 5 8 12 15 19 21 23 24
4 4 4 4 5 3 4 3 3 10 13 16 18 23 29 33 31 31 30 29 28 27 26 24 24 24 23 20 18 15 12 9 6 5 4 4 7 11 14 17 20 21 22 22
5 6 4 5 4 1 1 10 10 14 16 17 22 26 26 28 31 29 29 26 25 25 23 22 21 21 21 18 15 13 9 6 5 4 4 6 10 13 16 19 20 20 21 22
Wind_Direction
199 166 214 219 224 275 314 292 286 326 310 323 275 289 280 272 266 260 262 265 266 267 269 278 250 230 232 236 232 221 213 206 207 203 204 203 209 196 202 214 217 242 255 227
278 237 215 218 223 238 249 266 269 275 257 288 298 284 280 270 266 253 250 253 259 261 267 262 235 228 232 237 227 220 213 209 205 208 206 203 201 204 219 217 225 232 205 197
220 209 195 201 233 236 241 245 254 258 288 277 273 279 262 248 249 251 245 246 254 257 257 251 227 225 227 227 226 222 219 216 212 205 202 199 206 199 210 216 212 198 193 201
243 231 242 260 236 208 248 198 233 248 252 261 78 286 245 264 247 237 239 234 244 249 251 241 226 217 219 219 219 210 206 202 197 197 201 206 208 215 214 205 194 191 192 207
226 212 221 231 232 201 248 202 208 209 222 283 253 266 285 196 251 252 241 238 237 244 247 238 222 219 212 210 207 197 191 185 187 194 204 209 209 208 203 189 189 188 195 221
235 197 196 216 225 222 215 220 246 218 192 250 229 216 268 236 249 251 234 238 240 239 239 229 214 207 204 198 196 192 184 179 183 190 200 210 208 199 189 186 187 188 203 248
221 229 266 214 216 212 211 197 208 218 210 244 200 209 248 254 260 239 252 248 243 237 224 213 201 193 196 194 191 191 189 185 186 191 196 195 193 190 188 185 185 195 222 273
225 226 197 197 210 188 199 203 204 202 220 243 191 232 244 226 241 242 245 250 259 231 213 205 197 194 194 192 189 190 188 186 185 189 184 184 187 185 184 187 191 207 241 281
213 271 153 210 201 165 171 214 218 291 262 296 234 277 296 250 258 244 231 231 228 210 203 199 191 189 188 187 188 188 186 189 185 183 185 182 185 188 190 192 201 222 265 296
243 283 211 202 199 209 208 163 177 196 209 238 255 276 253 290 239 240 233 206 201 191 189 191 189 185 184 186 187 187 189 187 182 184 186 184 185 187 193 199 210 246 287 304
202 191 296 141 200 190 197 218 235 264 190 201 273 256 237 240 248 255 221 179 170 176 179 181 183 180 182 182 184 184 184 184 182 184 184 186 187 190 195 203 228 269 295 304
206 212 232 229 168 215 206 214 203 202 203 229 254 270 330 305 281 229 162 163 163 168 167 175 177 177 177 178 180 183 183 184 185 184 186 186 188 192 199 213 247 281 298 304
164 226 276 256 229 195 216 216 221 231 270 217 216 259 198 340 348 238 152 155 151 158 165 172 173 176 178 180 183 184 184 185 185 186 187 187 191 195 204 225 257 286 301 305
158 221 216 233 241 139 214 215 209 218 222 228 234 260 270 287 316 307 153 149 146 161 169 172 174 178 180 182 183 182 182 186 186 186 188 191 193 199 212 234 268 294 302 304
183 252 227 247 260 256 230 251 201 210 213 212 243 247 263 283 300 243 182 139 146 160 171 176 178 181 183 183 183 184 185 186 188 188 189 193 199 206 220 246 278 295 303 307
204 266 258 271 264 251 234 225 212 209 222 245 277 286 285 280 271 164 184 154 156 164 173 180 183 185 186 186 186 186 187 187 188 190 194 199 203 212 229 259 284 298 302 309
201 243 267 286 326 89 221 226 221 213 209 203 220 235 263 292 213 181 177 165 167 175 182 186 189 190 189 189 190 188 187 187 187 194 198 202 208 219 240 270 290 296 304 315
203 206 216 270 266 331 259 220 204 209 192 202 243 255 257 248 182 172 179 175 177 182 186 189 190 190 191 190 189 189 187 187 190 195 201 204 211 227 257 278 289 300 312 319
205 207 282 318 298 273 84 134 157 178 205 208 223 238 243 160 113 65 175 193 192 191 191 192 193 192 189 189 188 187 185 188 191 197 200 204 215 243 266 282 295 307 315 321
209 208 246 328 325 357 214 45 97 177 306 171 205 222 175 184 115 194 167 175 181 189 191 189 190 187 186 185 186 185 184 186 191 195 198 208 228 250 271 288 304 315 322 323
171 178 223 271 281 291 274 294 278 148 207 199 204 188 155 132 95 146 151 153 166 172 176 179 180 183 182 181 181 181 181 183 189 193 200 214 238 259 278 300 315 320 320 323
186 160 192 134 225 318 353 342 48 243 326 346 173 156 121 123 127 132 139 143 152 158 163 169 171 172 174 175 176 175 178 183 184 190 205 225 244 267 297 313 316 319 323 324
231 191 192 183 219 270 331 322 356 341 39 358 145 151 144 132 128 132 133 139 145 150 153 157 162 160 158 164 174 177 179 179 186 198 212 225 257 293 307 314 319 323 325 327
258 179 204 356 303 264 293 6 36 29 98 107 129 143 146 132 131 127 128 130 134 138 142 149 152 151 151 160 167 179 174 179 189 202 211 243 285 305 314 320 322 325 328 330
200 133 187 260 261 271 236 233 119 115 117 117 130 140 138 135 132 131 129 130 131 135 139 148 153 156 158 161 161 165 172 180 193 199 223 272 300 312 318 322 325 327 330 332
186 188 169 220 220 156 176 179 157 142 134 132 137 137 139 139 134 135 132 135 138 140 143 148 152 155 152 158 164 167 171 179 190 214 264 298 310 317 321 321 322 326 329 330